Track COSMOS 2522 (GLONASS) now! COSMOS 2522 (GLONASS) is classified as:
1 42939U 17055A 26257.28211448 .00000019 00000-0 00000-0 0 9997 2 42939 64.0798 188.8536 0009480 236.5461 123.3688 2.13101925 69875